DMSP 5D-2 F13 DEB, 40581

Orbit data source: Space-Track

DMSP 5D-2 F13 DEB, 40581 is space debris in SSO originally from a launch on Fri, 24 Mar 1995 UTC launched from the Air Force Western Test Range (AFWTR). Debris objects in space refer to the collection of defunct objects orbiting the Earth. Examples of debris include non-operational satellites, rocket bodies, and fragments generated from explosions, collisions, or faulty payload assembly.

Loading next visibility...
Identifier
40581, 1995-015EQ
Orbit
SSO
Country
Flag of USUS
Related business
Manufacturer
Unknown
Mission
Spacecraft
Bus & Motor
Unknown
Mass
Unknown
Launch date (UTC)
1995-03-24 (31 years ago)
Launch vehicle
Unknown
Launch site
Air Force Western Test Range (AFWTR)
Object type
Payload
Rocket body
Debris
Shape & HBR
Unknown shape, 0.1 m
Radar Cross Section
Medium (>0.1 m² and <1 m²)

Expand to show TLE details & history
Last TLE update: 4 days ago

TLE from 4 days ago
0 DMSP 5D-2 F13 DEB
1 40581U 95015EQ  26169.06886334  .00003364  00000-0  11465-2 0  9995
2 40581  98.7015 211.5910 0016999 287.8085  72.1246 14.37053598580809
Epoch: 2026-06-18T01:39Z
TLE epoch observation values (Epoch: 2026-06-18T01:39:09.792Z)
Latitude
-0.00005°
Longitude
-79.51728°
Altitude
767.477 km
Speed
7.472 km/s
True Right ascension
14h 06m 21s
True Declination
0° 00' 00"
Sunlit
Object was in full shadow at epoch
Visualization orbit readout
Latitude
Unknown
Longitude
Unknown
Altitude
Unknown
Speed
Unknown
Apparent Right ascension
Unknown
Apparent Declination
Unknown
Sunlit
N/A
Visualization observer readout
Local Sidereal Time
21:36:24
Azimuth
Unknown
Elevation
Unknown
Doppler factor
Unknown
Orbital elements
Apogee altitude
777.529 km
Perigee altitude
753.242 km
Semi-major axis
7,143.522 km
Eccentricity
0.0017
Inclination
98.7015°
RAAN
211.591°
Arg. of periapsis
287.8085°
True anomaly
72.31011°
Mean anomaly
72.1246°
Eccentric anomaly
72.21734°
Mean motion
3.5948 °/min
Orbital period
100.14 mins
BSTAR
0.0011465

Documentation

Showing up to 5 results
|